ECMWFFLT1_850_thetae_057.txt.gz
Theta_e
332 332 332 332 332 332 331 330 330 331 331 330 330 330 328 327 327 328 330 331 329 328 329 328 327 327 328 329 330 330 329 329 329 328 328 328 328 328 328 327 326 327 326 325 325 325 325 326 327 326 326 326 325 324 323 322 321 320 319 319 318 317 318
333 333 333 332 332 331 331 330 329 330 331 329 329 330 329 327 327 329 330 329 328 327 328 328 327 327 328 329 329 329 328 328 329 329 329 328 327 327 327 327 327 327 327 325 325 325 325 326 326 326 325 325 325 324 323 322 321 319 318 318 317 317 318
333 333 333 332 332 331 331 331 329 330 331 329 329 329 326 326 329 330 329 328 328 328 328 328 327 327 327 328 328 328 327 328 328 328 329 328 328 327 327 327 326 327 327 325 325 325 325 325 325 325 325 324 324 323 322 323 322 319 318 318 317 317 317
333 333 333 333 333 332 331 331 330 331 331 330 327 326 325 327 329 329 328 327 328 329 329 328 327 326 326 327 328 328 327 328 328 328 329 329 328 327 327 326 326 327 327 325 325 325 325 325 324 325 324 323 323 323 323 323 321 319 318 318 317 315 314
331 331 331 332 333 332 332 331 331 331 331 329 326 325 327 328 328 329 329 328 329 329 329 329 328 327 326 327 328 328 328 328 328 329 329 329 329 328 327 327 327 327 327 326 325 325 325 325 324 324 324 323 323 323 324 323 320 319 318 318 317 315 312
331 331 331 331 333 332 331 330 331 331 330 330 327 325 326 327 328 330 330 329 329 329 329 328 328 327 327 327 327 328 328 328 328 329 329 329 329 328 328 327 327 327 327 326 326 325 325 325 325 324 324 323 323 324 324 322 320 319 318 317 316 315 313
331 331 331 331 332 332 331 330 330 330 329 329 328 326 326 328 329 330 330 330 329 329 329 329 328 328 328 327 327 327 328 328 328 328 329 329 328 328 328 328 328 328 326 326 326 325 325 326 325 325 324 323 323 324 324 322 319 319 318 317 315 314 313
331 332 332 332 332 332 331 330 331 331 329 328 329 328 327 327 328 329 330 330 330 329 329 329 328 328 328 327 327 328 328 328 328 328 328 329 328 327 328 328 328 328 326 326 326 326 326 326 325 325 324 324 324 324 322 320 319 318 317 316 315 313 312
331 332 333 333 332 331 330 330 330 330 328 328 328 327 326 327 328 329 329 330 330 329 329 329 329 328 328 327 326 327 328 328 328 328 328 328 327 327 327 328 328 327 326 325 326 326 326 326 326 325 324 323 323 322 320 319 318 318 317 316 314 312 311
332 332 332 332 331 330 330 330 329 329 329 327 326 325 325 328 330 330 328 328 330 329 329 329 328 328 328 327 326 327 328 329 329 329 328 328 328 327 327 327 327 327 326 325 326 327 327 326 326 326 325 324 323 321 320 319 318 318 317 316 313 311 310
332 331 331 331 331 330 329 329 329 329 327 326 325 324 324 326 329 330 328 327 328 329 329 328 328 328 328 327 327 328 329 330 330 329 329 329 328 328 327 327 326 326 326 325 325 326 327 326 326 326 325 325 324 322 321 320 318 318 317 315 312 311 310
331 330 330 330 330 329 329 328 329 328 327 326 326 325 325 327 328 327 327 327 327 328 328 327 327 328 328 328 329 329 329 330 330 329 329 328 328 328 328 327 326 326 326 325 325 326 327 326 326 326 326 326 324 323 323 321 318 316 315 313 311 310 310
330 329 329 329 329 329 329 329 329 328 327 327 327 324 325 327 326 325 327 327 327 327 327 326 327 328 328 329 330 330 329 329 329 329 329 328 328 328 328 328 327 326 326 326 326 326 326 326 326 326 326 326 325 324 324 323 320 316 313 312 311 310 310
330 329 328 328 328 328 328 328 328 328 326 326 326 324 323 324 324 326 328 327 328 328 327 327 328 328 329 330 330 330 329 329 329 329 329 328 328 328 328 328 328 328 327 326 326 326 326 326 326 326 326 326 325 325 325 323 320 317 314 312 312 311 310
331 329 329 329 328 328 328 328 328 327 325 324 324 324 322 322 323 326 328 328 329 329 329 329 329 329 329 329 330 330 329 329 328 328 328 329 328 327 327 327 327 328 327 327 326 326 326 326 325 325 325 325 326 325 324 323 322 320 316 312 312 311 311
331 330 330 330 329 328 327 327 326 325 324 323 323 322 323 323 323 326 328 328 328 329 330 329 328 328 328 328 329 330 329 328 328 328 328 327 327 327 326 326 326 327 327 327 326 326 326 326 326 325 325 325 326 325 325 323 323 321 317 313 311 311 311
330 330 330 330 330 329 327 326 325 325 325 324 322 323 323 324 325 327 327 325 326 327 328 327 326 326 326 327 328 328 328 327 327 327 327 327 327 326 326 326 326 326 326 326 326 326 326 325 325 325 325 325 325 325 325 324 322 320 317 315 314 313 311
329 330 330 330 330 329 328 326 326 325 324 324 326 325 325 324 325 326 325 323 322 324 324 323 323 323 324 325 326 326 326 326 326 327 326 326 327 327 327 327 327 327 326 325 325 325 325 324 324 325 325 325 325 325 325 324 322 320 320 320 320 318 314
328 329 329 329 329 329 328 328 326 324 323 326 328 325 324 326 326 325 324 323 322 322 321 320 320 321 322 323 324 325 325 325 325 325 325 325 326 326 327 327 327 326 326 325 324 325 324 323 323 324 326 325 326 326 325 323 323 323 323 322 320 318 316
327 328 329 329 329 328 328 327 326 323 323 326 328 326 325 326 326 324 324 324 322 321 319 319 319 319 320 320 321 323 324 325 326 325 325 325 326 326 326 326 326 326 326 325 325 325 324 324 324 325 326 325 325 325 324 323 324 324 324 321 317 315 314
327 328 329 329 329 328 326 326 326 324 323 324 327 328 327 326 324 325 326 325 322 320 320 320 320 320 320 319 320 322 324 325 326 326 326 326 326 326 326 326 326 326 326 326 325 325 325 325 325 325 326 325 324 324 324 323 323 323 322 319 315 314 314
327 327 328 329 329 327 326 326 325 325 324 324 326 328 328 326 323 325 327 325 322 321 322 322 322 321 321 320 321 322 323 324 325 326 326 326 326 326 326 326 325 325 325 325 326 326 326 325 325 326 325 325 324 324 324 323 323 323 321 317 315 315 314
327 327 327 329 328 327 327 326 324 324 324 325 326 327 327 325 323 325 327 325 323 323 323 323 323 322 322 322 322 323 323 324 325 325 326 327 326 326 325 324 323 323 324 325 326 326 326 326 326 325 325 325 324 324 324 323 323 322 320 317 315 314 314
326 327 326 327 328 328 328 326 324 324 324 324 326 326 326 323 322 325 326 325 324 324 323 323 324 323 322 323 323 323 323 324 325 326 326 326 325 325 323 322 322 322 323 324 325 326 325 326 326 325 325 324 323 323 323 322 321 321 319 318 315 314 314
324 326 326 327 327 328 328 326 324 324 324 324 325 325 324 321 321 323 325 325 325 324 323 323 323 322 322 323 324 324 324 325 326 326 326 326 325 324 322 322 322 322 322 323 325 325 325 325 325 325 325 324 322 321 322 321 320 319 318 317 315 314 313
323 325 326 326 326 327 327 325 323 324 324 324 326 325 322 321 322 324 325 325 325 325 324 323 323 321 321 322 323 324 325 324 324 324 325 325 325 323 322 322 322 321 321 322 324 325 325 324 324 324 324 323 321 320 320 320 319 318 317 316 315 314 314
321 323 324 326 326 326 327 325 323 324 324 325 326 324 321 322 324 325 325 325 325 324 324 323 322 321 321 322 322 323 323 322 322 323 323 323 323 322 322 322 322 321 320 320 321 322 323 324 324 322 321 320 321 321 319 319 318 317 315 315 315 315 315
319 322 323 325 325 326 327 326 324 325 325 325 325 323 322 324 325 325 325 325 324 324 323 323 323 322 321 321 321 322 322 322 322 322 321 321 321 321 321 322 322 321 320 320 319 320 321 321 321 321 319 319 320 321 320 319 319 317 316 316 317 317 317
317 321 323 323 323 325 326 326 325 325 326 325 324 324 324 325 325 325 325 324 323 323 323 323 323 322 322 322 321 321 322 322 321 321 321 320 321 321 322 322 322 320 319 319 319 319 320 320 319 319 318 318 319 320 319 318 319 319 319 319 319 319 318
313 318 321 322 321 323 326 326 325 325 325 324 324 324 323 323 324 324 323 322 322 322 322 322 323 322 322 322 322 321 321 321 321 321 320 320 320 320 321 321 320 320 320 320 320 319 319 319 318 317 316 316 317 318 317 316 317 318 318 318 318 319 319
311 313 316 318 318 318 322 325 326 325 325 324 324 323 321 322 322 322 321 321 320 321 321 321 321 321 321 321 321 321 321 321 321 320 320 320 319 319 320 320 320 320 320 319 319 319 319 318 317 317 316 316 316 317 317 317 317 316 316 317 317 317 318
310 310 311 312 312 312 314 320 325 325 324 323 323 321 319 320 321 320 319 319 319 319 320 319 319 319 320 320 320 320 320 320 320 320 320 319 319 319 319 319 319 320 320 319 319 319 318 318 317 317 317 317 318 318 318 318 318 318 317 317 318 318 318
309 310 310 309 308 307 306 310 317 321 321 321 321 318 316 317 319 318 317 318 318 317 317 316 316 316 317 317 318 318 319 319 319 319 319 319 318 318 319 319 319 319 319 319 318 318 317 317 317 318 318 318 319 319 319 318 318 318 317 317 316 316 316
308 309 309 308 308 306 304 304 307 311 313 315 317 316 314 314 316 315 314 314 314 312 312 311 312 312 313 315 316 316 316 317 317 318 318 318 318 318 318 318 318 319 319 318 318 318 317 318 317 317 317 318 318 318 318 318 317 317 316 316 315 315 314
307 308 308 308 307 307 306 305 305 306 308 310 312 313 312 311 312 312 311 311 311 310 310 310 311 312 312 314 316 317 316 316 317 316 317 317 318 318 318 318 318 319 318 318 318 318 318 318 318 317 317 317 317 317 317 317 316 315 315 314 314 312 311
305 306 307 307 307 307 307 307 306 307 307 308 309 311 312 312 311 311 312 312 311 311 311 311 311 312 312 312 314 316 316 316 316 316 317 317 318 318 318 317 318 318 318 319 318 318 318 318 317 316 316 315 315 314 314 313 313 312 311 310 309 308 307
303 304 305 305 305 305 305 305 306 306 306 306 306 307 309 311 311 310 311 311 311 312 313 313 312 312 312 312 312 314 315 316 317 317 318 318 318 318 317 316 316 316 317 318 317 315 315 315 314 313 313 312 311 309 308 308 307 307 306 306 305 304 304

ECMWFFLT1_850_thetae_060.txt.gz
Theta_e
331 331 331 333 334 333 333 332 332 332 332 330 331 332 330 330 331 331 331 331 331 329 326 326 328 329 328 328 329 329 329 329 329 329 328 328 327 328 328 328 327 326 326 326 326 325 325 326 325 325 324 324 325 325 324 323 322 321 320 320 319 316 317
327 326 328 330 333 333 332 332 332 332 331 331 332 331 331 330 330 331 330 331 331 329 327 327 327 329 328 327 328 329 329 329 329 329 329 328 328 327 327 328 327 327 326 326 326 325 324 325 325 325 325 325 325 325 324 322 321 320 319 318 317 316 317
324 325 327 328 331 332 332 332 332 331 330 330 331 332 331 330 330 331 330 330 331 330 329 330 329 329 329 327 327 328 328 329 328 328 329 328 328 328 327 327 327 327 326 326 325 325 325 324 324 324 324 325 325 324 323 321 320 319 318 317 316 316 317
325 325 326 327 328 330 332 332 331 331 331 330 331 331 331 330 330 329 328 328 330 330 330 330 329 329 329 328 327 328 328 328 328 328 329 329 329 329 328 327 326 326 326 325 325 324 325 325 324 324 324 325 325 324 321 320 320 319 318 317 317 315 314
326 325 326 327 329 330 332 332 331 331 331 331 331 331 330 330 330 328 326 327 329 330 330 329 328 329 329 328 327 328 328 328 328 328 329 329 329 329 328 328 326 325 326 326 326 325 324 324 324 324 324 325 325 324 322 321 321 319 318 318 316 314 311
325 325 326 328 329 330 331 332 332 331 332 331 331 331 330 330 330 327 325 327 329 330 329 328 328 329 329 328 328 328 328 328 328 328 329 329 329 329 328 328 327 326 326 326 327 326 325 325 325 324 324 324 324 324 322 322 321 320 319 318 316 314 311
325 324 325 326 327 329 330 331 332 332 332 332 331 331 330 329 328 325 324 327 329 329 328 327 329 329 329 328 328 329 328 328 328 328 328 328 329 329 328 328 327 326 326 326 327 327 326 325 325 325 324 324 324 323 323 323 322 320 319 318 316 314 312
324 324 326 327 327 328 330 331 332 332 332 331 330 330 330 328 326 325 326 328 328 327 327 327 329 330 329 328 328 329 329 328 328 328 328 328 328 329 328 328 328 327 327 327 326 326 326 326 325 325 325 324 324 323 323 324 323 321 319 318 316 314 312
325 326 326 327 328 329 330 330 331 331 331 330 330 330 329 327 325 326 328 329 329 328 327 328 329 330 329 328 328 328 328 328 328 328 328 328 328 329 328 328 328 327 327 328 327 326 326 326 325 326 325 324 324 323 323 324 323 321 319 318 317 315 312
326 327 326 327 329 330 330 329 329 330 331 331 330 330 329 326 325 326 327 328 328 328 328 329 329 329 329 329 328 328 328 328 328 328 328 327 327 328 328 328 328 328 328 328 327 326 325 326 326 326 325 325 324 323 323 323 322 321 320 318 317 315 311
328 328 328 329 330 331 329 329 329 330 330 330 330 330 329 328 327 326 326 327 327 328 329 330 329 329 329 329 328 328 327 327 327 327 328 327 327 327 327 327 327 327 328 328 327 326 325 326 326 326 326 326 325 324 323 323 322 320 319 319 317 314 311
329 329 330 330 330 330 329 329 330 330 329 330 330 329 329 328 327 325 325 327 328 329 330 330 329 329 329 329 328 328 327 327 327 328 328 328 327 327 327 326 327 327 327 328 327 326 326 326 327 326 326 326 325 324 323 323 322 320 317 317 317 313 310
329 329 330 329 329 330 330 330 330 329 329 330 329 328 327 326 325 325 325 327 329 330 330 330 329 328 329 329 328 328 327 327 328 328 329 328 327 327 327 327 327 327 327 327 327 326 325 326 327 327 326 326 325 325 324 323 323 321 318 315 314 312 309
330 330 330 330 329 329 330 330 329 329 329 330 329 328 326 325 324 324 326 328 330 329 329 329 329 329 329 328 328 328 328 328 328 329 329 328 327 327 327 327 328 327 326 326 326 326 325 326 326 327 326 326 326 325 324 324 323 323 321 316 312 310 309
330 330 329 330 329 329 330 330 329 329 329 329 328 327 326 325 322 321 324 327 328 328 328 328 329 328 328 328 328 328 328 328 329 329 329 328 328 328 327 327 328 328 327 326 326 326 326 325 326 326 326 325 325 325 325 325 324 323 322 319 314 311 310
329 329 329 329 329 329 329 329 329 328 329 329 328 327 327 326 324 322 322 323 324 326 327 328 328 328 327 327 328 328 328 329 329 329 328 328 328 328 327 327 328 328 327 327 327 326 326 326 326 326 326 325 325 325 325 325 324 324 323 321 318 314 311
329 328 328 329 329 328 328 327 327 327 328 329 328 327 327 326 326 325 323 322 322 324 327 328 328 328 328 327 328 328 328 328 329 329 328 328 328 328 328 328 328 328 328 327 327 327 326 326 326 326 325 325 325 325 325 325 325 324 323 322 321 317 313
327 327 327 328 328 328 327 326 326 327 327 328 328 327 327 325 325 325 324 323 323 324 325 328 328 328 329 328 328 328 327 328 328 328 327 328 328 328 328 328 328 327 327 327 328 327 327 326 326 325 325 325 325 325 325 325 325 324 323 323 322 320 316
326 326 325 325 326 327 327 326 326 326 327 327 327 327 327 326 325 325 324 323 323 324 325 326 328 329 328 328 328 328 328 328 329 328 328 328 328 328 328 328 327 327 327 327 327 327 327 327 326 326 325 325 325 325 324 325 325 324 324 323 321 319 318
326 326 325 325 326 327 327 327 326 326 326 327 327 327 327 326 325 325 325 323 322 324 324 324 326 328 327 325 325 326 327 328 328 328 328 328 328 327 327 327 327 327 327 326 327 326 326 325 325 325 325 325 324 324 325 325 325 325 324 323 320 319 320
324 326 326 326 327 327 328 328 328 327 327 326 327 326 326 325 324 324 326 325 323 323 324 324 325 326 324 324 324 325 326 327 327 327 327 327 327 327 327 327 327 327 327 327 326 326 325 325 324 324 325 324 324 324 325 325 325 325 325 323 321 320 321
320 324 326 327 327 328 328 328 328 328 327 327 326 325 325 326 324 323 325 325 324 323 323 324 325 324 323 323 323 324 324 325 326 326 326 326 326 326 326 326 326 327 326 326 326 326 326 325 325 325 324 324 324 325 325 325 325 325 325 324 323 321 322
317 320 324 327 327 327 328 329 329 328 327 327 325 323 324 326 325 323 324 323 323 322 322 323 324 323 321 321 321 321 321 322 324 326 326 326 326 326 326 326 326 326 326 326 326 326 326 324 324 324 324 324 324 325 325 325 324 324 324 324 323 322 322
315 318 321 324 326 327 327 328 329 328 327 326 325 323 324 325 324 323 323 322 322 323 323 322 322 321 321 321 321 320 320 322 324 325 326 326 326 326 326 326 327 326 326 326 326 326 326 324 323 323 324 324 324 325 325 324 323 322 323 323 323 322 322
313 316 319 322 324 326 326 327 328 328 327 326 325 323 323 323 323 322 323 323 324 325 324 322 321 322 322 322 322 322 322 324 325 325 325 325 326 326 326 326 326 325 324 324 324 325 325 325 324 324 324 324 325 324 324 324 323 322 323 323 323 322 321
312 314 317 320 323 324 325 326 327 328 327 326 325 324 323 323 324 324 324 324 325 325 324 322 322 323 323 323 323 323 323 324 325 325 325 326 326 326 326 326 325 324 323 323 323 324 325 325 325 324 324 325 325 324 324 323 322 322 322 322 322 322 320
311 312 315 319 321 323 325 325 326 327 327 326 325 324 323 324 325 326 325 324 324 324 323 323 323 324 324 324 323 323 324 324 324 325 325 326 326 326 326 325 324 323 322 322 322 323 325 325 324 324 324 324 324 323 322 321 321 321 321 320 319 319 318
310 311 314 317 320 323 324 324 325 326 326 325 325 324 323 323 325 327 326 324 324 323 322 323 324 324 324 324 324 324 324 324 325 325 325 326 326 326 325 325 324 323 322 321 320 321 323 323 323 323 323 323 322 321 320 319 319 319 319 318 317 317 316
309 309 311 314 318 322 324 323 324 325 325 324 324 324 324 324 325 327 326 324 323 322 321 323 325 324 324 324 323 323 324 325 325 324 324 324 324 324 324 324 323 322 322 321 320 320 320 321 321 321 320 320 320 319 319 319 318 318 317 316 316 316 315
308 308 309 310 314 318 321 322 322 323 324 324 324 324 324 324 325 327 325 323 322 321 321 323 325 324 323 323 322 323 324 325 324 322 322 322 322 322 322 322 321 322 322 321 320 319 319 319 319 319 318 319 318 318 318 318 318 318 318 317 316 316 316
307 307 307 307 309 312 316 318 319 319 321 323 323 324 325 325 326 326 324 323 323 322 323 324 324 324 323 322 321 322 322 323 323 322 321 321 321 320 321 321 321 321 321 321 320 319 319 319 319 318 318 317 317 317 317 317 317 317 318 317 316 316 316
307 307 306 306 306 308 311 313 314 314 315 317 318 320 322 324 326 325 324 323 324 325 325 325 324 324 323 323 322 321 321 322 322 321 321 321 320 320 320 321 322 321 320 320 319 319 319 319 318 318 317 316 316 316 316 317 317 316 317 316 316 316 316
306 306 306 305 305 305 306 309 311 311 310 309 310 312 315 318 322 323 322 321 322 322 323 323 323 323 323 323 322 322 321 322 322 321 321 320 320 320 320 320 320 320 319 319 319 319 319 319 318 317 317 317 318 318 318 318 318 318 317 317 317 317 317
305 305 306 306 305 304 304 305 307 308 307 305 305 307 309 311 314 317 317 317 317 318 319 320 321 321 321 321 321 321 321 321 321 321 320 320 320 320 319 319 319 319 319 319 319 319 318 318 318 318 318 317 318 318 317 317 317 316 316 315 315 315 314
304 305 305 305 305 305 304 304 305 306 306 305 304 305 305 306 309 311 313 314 314 315 316 317 317 317 318 319 319 319 319 319 320 320 319 319 319 319 319 319 319 319 318 318 318 318 318 318 317 317 317 317 316 315 314 312 311 311 310 310 309 309 308
302 303 304 304 305 305 305 305 305 305 305 305 305 305 305 304 305 308 310 311 312 313 314 314 315 315 316 316 317 317 317 318 318 318 318 318 318 318 318 318 318 317 317 317 316 316 316 316 316 315 314 313 312 311 310 308 307 306 306 305 305 305 304
303 303 303 303 303 304 304 305 305 305 305 305 305 306 305 304 303 304 306 307 308 310 311 311 312 313 314 314 315 315 316 316 316 316 316 317 317 317 317 317 317 317 316 315 315 314 314 313 314 314 312 310 309 307 306 306 305 304 304 303 303 303 302

ECMWFFLT1_850_thetae_063.txt.gz
Theta_e
332 331 332 332 329 326 325 326 328 329 331 331 331 332 331 328 326 326 330 331 331 331 330 329 329 330 330 329 329 330 329 329 329 329 329 329 329 328 328 328 328 327 326 326 326 327 328 327 326 326 325 325 325 325 325 325 325 324 322 321 319 318 319
330 331 332 331 329 326 324 325 327 328 330 331 331 331 331 329 327 326 328 331 331 331 330 330 329 330 330 329 328 328 328 329 330 329 329 329 328 328 327 327 328 327 327 326 326 327 327 327 327 326 325 325 325 326 325 325 325 324 322 323 320 317 317
330 330 331 330 329 328 326 325 326 327 328 330 331 331 330 329 329 329 330 330 331 331 330 329 330 330 331 329 327 326 327 328 329 330 329 329 328 328 327 327 328 328 327 327 327 327 326 327 328 327 326 325 326 326 326 325 325 323 321 322 319 317 317
331 330 328 328 328 328 327 326 326 326 328 330 331 331 331 330 330 330 331 330 330 330 330 329 330 330 330 329 328 327 327 327 329 329 329 330 329 328 328 327 328 328 328 327 327 327 326 326 327 328 326 325 326 327 325 323 323 322 320 320 319 318 318
332 331 328 327 328 329 328 328 328 328 329 330 330 330 330 331 330 330 331 331 330 330 330 330 330 328 329 330 329 328 327 326 329 330 330 329 329 329 328 328 328 328 327 327 326 326 325 325 326 327 326 326 326 326 324 321 320 321 320 319 319 318 316
331 331 330 329 329 330 330 330 330 330 329 329 328 328 329 330 330 330 331 331 330 329 330 331 329 327 328 330 329 328 327 326 328 330 330 329 329 329 328 328 328 328 328 327 326 326 325 324 325 326 326 325 326 327 324 320 320 321 320 319 319 316 313
331 331 331 331 330 330 331 331 331 331 330 329 329 328 330 330 330 329 330 330 330 329 329 329 329 327 328 330 329 328 328 327 327 330 330 329 329 329 328 328 328 328 328 326 326 327 326 325 325 325 326 325 326 326 323 321 321 321 320 320 319 316 312
329 329 329 329 329 330 330 331 331 331 330 331 330 330 330 330 329 329 329 330 330 328 326 328 329 328 329 330 328 328 329 327 326 329 330 330 329 328 329 329 328 328 327 326 326 327 326 325 325 325 325 326 326 326 324 322 322 322 322 320 318 316 313
328 328 327 327 327 327 328 329 329 330 331 331 330 330 330 330 329 330 329 330 330 328 325 327 329 330 329 329 328 328 328 327 326 328 330 330 329 329 329 328 328 328 327 326 326 326 327 326 326 325 325 325 326 326 325 324 323 323 322 320 319 317 314
329 329 328 328 327 325 325 326 327 329 329 329 330 330 330 330 329 329 329 330 330 328 325 326 328 329 329 329 328 328 328 327 326 328 329 329 329 328 329 328 328 328 328 327 326 327 327 326 326 325 325 326 326 326 325 325 324 324 323 320 319 318 316
328 329 329 329 328 327 326 326 327 328 328 328 330 330 329 330 329 329 329 329 328 326 325 326 328 329 329 329 329 328 328 328 328 328 329 329 329 328 328 328 328 328 328 327 327 328 328 326 325 325 325 326 326 326 326 325 325 324 323 321 320 319 317
328 328 329 329 328 328 328 327 327 328 327 326 328 329 329 329 329 329 328 327 326 325 326 328 328 328 329 330 329 329 328 328 329 329 329 329 328 328 328 328 328 328 327 327 327 328 328 327 325 326 326 326 326 326 325 325 325 323 320 320 320 319 317
327 328 329 329 329 329 329 328 327 327 327 327 328 329 329 329 329 328 327 326 326 326 327 328 328 328 329 329 328 329 329 329 329 329 328 328 328 328 328 328 328 328 327 327 328 328 328 326 326 326 326 326 326 326 325 325 325 323 319 318 318 319 317
327 327 328 329 329 329 329 329 328 327 327 328 328 328 328 328 329 328 328 327 325 324 325 327 327 329 330 329 328 328 328 328 328 328 328 328 328 328 328 328 328 329 328 327 327 328 328 327 326 326 327 326 326 326 326 325 324 324 322 319 316 316 315
326 327 328 328 328 329 328 329 329 328 327 326 326 328 328 327 328 329 328 327 325 325 325 325 327 329 330 328 327 327 328 328 328 328 327 327 328 329 328 328 328 329 328 327 327 328 328 327 326 326 326 326 326 326 326 325 324 323 323 321 317 313 311
326 327 327 328 328 328 328 328 328 328 327 326 325 327 328 327 328 328 327 326 325 325 325 326 328 330 329 328 327 327 328 328 328 328 328 328 329 329 329 328 328 328 327 327 327 327 327 327 326 326 326 326 326 326 326 325 324 323 323 322 320 315 311
324 326 327 327 327 328 328 328 328 328 328 326 325 327 328 327 327 327 326 325 324 325 326 328 329 329 328 328 328 327 328 328 327 328 329 328 329 329 329 329 328 328 328 327 327 326 326 326 326 326 326 326 326 326 326 325 325 324 323 323 322 320 315
320 323 325 326 326 327 327 328 328 328 327 326 326 327 328 327 326 326 325 324 324 324 325 326 327 328 328 329 328 327 328 328 328 328 328 329 329 329 329 329 328 328 328 327 327 326 325 325 325 326 326 326 326 326 326 326 325 325 324 323 323 322 319
317 319 322 325 326 326 325 326 327 327 327 326 327 327 328 327 326 326 326 325 324 325 324 324 325 327 328 328 328 328 328 328 328 329 329 329 330 329 329 329 328 328 328 327 327 326 324 324 326 326 326 326 326 325 325 325 325 325 325 324 323 323 322
315 316 318 322 325 326 325 325 326 326 326 327 327 328 328 327 326 326 326 326 326 326 324 324 325 327 328 328 328 328 328 328 328 329 329 329 330 329 329 329 329 328 327 327 326 326 325 326 326 327 326 326 326 326 325 325 325 325 325 325 324 323 323
315 315 316 318 322 325 326 325 326 327 327 327 327 328 328 328 327 327 326 326 325 325 324 323 325 326 327 328 328 328 328 328 328 328 328 328 329 329 329 328 328 328 328 327 327 326 327 327 327 327 327 326 326 325 325 325 325 325 325 326 325 324 323
314 314 315 316 319 323 326 327 327 327 328 327 328 328 328 327 327 327 327 326 324 325 325 324 324 326 327 327 327 327 327 327 327 327 328 328 329 329 328 327 327 327 327 327 327 326 326 326 326 326 326 326 326 326 326 325 325 325 325 325 325 324 323
313 313 314 316 317 320 324 326 326 327 327 328 328 328 328 328 327 327 326 325 324 324 325 324 323 325 326 326 325 325 325 325 325 326 327 327 328 328 328 327 326 326 327 327 327 327 326 325 326 325 325 325 326 326 326 325 324 324 324 323 324 325 324
312 312 313 315 317 318 321 323 325 325 326 327 327 328 328 328 328 326 326 325 324 324 324 324 323 324 325 325 324 323 324 324 325 325 326 326 326 327 327 327 326 326 327 327 326 327 326 326 326 325 325 324 325 325 325 325 324 323 323 323 323 324 323
311 311 312 313 316 318 319 321 323 324 325 326 327 327 328 328 327 326 325 325 324 324 324 324 323 323 324 324 323 322 324 325 324 324 324 325 325 326 326 326 326 326 326 326 326 327 326 326 326 325 323 322 323 324 324 324 324 324 324 324 323 323 324
310 311 310 311 314 317 319 320 322 324 324 325 326 326 327 328 327 325 326 326 325 324 323 323 322 322 323 323 322 321 323 324 323 323 323 324 326 327 326 326 326 326 326 326 326 326 326 326 325 324 323 322 322 323 323 323 323 324 324 324 323 322 323
309 309 309 309 312 316 319 320 321 323 324 325 324 325 326 327 326 325 325 327 326 323 322 322 322 322 323 322 320 320 321 322 322 323 324 325 326 326 326 326 326 326 326 326 326 325 325 324 324 324 324 323 323 324 324 324 324 324 324 323 322 322 322
308 308 308 308 309 312 316 318 319 321 323 324 324 323 324 325 326 324 324 326 326 324 322 322 323 324 323 321 320 321 322 322 323 324 325 325 325 326 326 326 326 325 325 325 324 324 323 323 323 324 325 324 324 324 324 324 324 324 323 322 321 321 321
306 307 307 307 307 309 312 314 316 317 319 321 322 323 324 324 325 325 324 325 326 325 324 324 325 325 323 322 322 322 323 323 323 324 325 325 325 325 326 326 325 325 325 324 323 322 321 322 323 324 324 323 323 323 322 322 321 321 321 320 320 321 320
305 306 306 306 306 306 307 309 311 313 314 317 319 321 322 323 324 325 325 325 326 326 326 326 326 325 324 324 324 324 323 324 324 324 324 325 325 325 326 326 325 324 324 324 322 321 320 321 322 322 321 321 320 320 320 319 319 319 319 318 318 319 318
305 305 305 305 305 305 305 306 307 308 310 312 315 317 318 319 320 322 324 324 325 326 326 326 326 325 325 325 325 324 324 324 324 324 324 325 325 325 326 326 324 323 323 323 323 321 320 319 320 320 319 319 319 319 319 319 319 318 318 317 317 316 316
304 305 305 305 305 304 304 304 304 305 306 308 310 312 313 314 313 315 319 322 324 325 326 326 325 325 326 326 325 324 324 324 324 324 324 324 325 324 324 325 324 323 322 322 322 321 319 319 319 319 319 318 318 318 317 317 317 317 317 317 317 316 316
303 303 304 305 305 304 304 304 304 304 304 305 306 308 309 310 309 309 311 316 320 322 324 325 325 325 326 326 325 324 324 324 324 324 324 324 323 322 322 322 322 322 322 322 322 320 319 319 319 318 318 317 317 317 316 316 316 316 317 317 316 316 316
302 302 303 303 304 304 304 304 304 304 304 304 305 305 306 307 307 306 306 308 312 315 317 321 323 324 324 325 325 324 323 323 323 323 324 323 322 322 321 320 320 321 321 321 321 320 319 319 318 317 317 317 316 316 316 316 316 316 316 316 316 316 316
301 301 301 302 303 304 304 304 304 304 304 304 304 304 304 304 305 305 305 305 306 308 310 312 317 321 322 321 322 323 322 322 323 323 323 323 321 321 320 320 321 322 321 321 320 319 319 318 317 316 316 316 316 317 317 317 317 316 316 315 314 313 312
299 299 299 300 301 301 302 303 304 304 304 304 304 304 304 303 303 304 304 303 303 304 305 306 309 315 317 316 316 318 318 319 320 321 321 321 321 320 320 320 320 320 319 319 318 318 318 318 317 316 316 317 317 317 317 317 315 312 312 311 310 310 309
298 298 298 298 298 298 299 299 301 302 303 303 304 304 304 303 303 303 303 303 303 303 303 302 304 308 312 313 313 313 314 315 316 316 316 317 318 318 318 317 318 318 317 317 318 317 317 316 315 315 315 314 314 314 313 312 309 308 307 307 306 306 305

ECMWFFLT1_850_thetae_069.txt.gz
Theta_e
336 337 337 336 336 335 334 334 334 332 330 331 333 334 333 332 331 332 332 331 330 331 332 332 331 330 329 329 330 330 329 328 326 325 327 327 328 328 328 330 331 330 330 330 330 330 330 331 331 330 330 329 329 330 329 328 329 329 328 327 326 327 327
335 336 336 336 336 336 335 335 335 334 333 332 331 332 333 332 331 331 331 331 331 331 332 332 332 331 330 329 330 330 329 329 328 327 326 327 328 328 329 330 330 329 330 330 329 330 331 331 331 330 329 330 329 329 329 329 330 329 328 327 326 327 327
334 335 335 336 335 335 335 335 335 335 333 332 331 332 332 332 331 330 330 331 331 331 331 332 331 330 330 331 330 330 330 329 329 328 327 327 328 329 328 330 330 330 330 330 330 331 332 330 330 329 329 330 329 329 329 330 330 330 329 328 327 327 327
334 333 334 335 335 335 335 335 335 335 333 332 332 332 332 332 331 330 330 331 330 329 329 330 330 330 330 331 330 329 329 330 330 329 328 329 329 329 328 328 330 330 329 330 330 330 331 331 331 331 329 330 329 328 329 330 330 330 329 328 327 327 327
332 332 333 334 334 334 335 335 335 335 334 333 332 332 332 333 332 331 331 331 330 328 328 329 330 331 331 330 329 327 326 329 330 330 329 329 328 329 328 328 329 330 330 331 329 330 331 329 329 331 331 330 330 329 330 330 330 330 330 329 328 327 327
331 332 332 333 332 333 333 334 335 335 334 334 334 333 332 332 332 331 330 330 330 329 330 330 331 331 331 331 329 327 326 328 330 330 329 329 328 327 326 327 328 329 330 331 329 329 331 329 328 330 331 330 330 330 330 330 329 330 330 329 328 328 327
331 331 331 331 331 332 332 332 333 333 333 334 333 332 332 332 331 331 330 330 330 330 331 331 332 331 331 331 330 329 328 328 330 331 330 328 327 327 326 326 327 328 329 330 330 330 330 330 329 329 329 329 329 329 330 330 329 330 330 329 328 328 327
329 330 330 331 331 331 331 331 331 331 332 332 331 331 331 330 331 330 330 330 330 331 331 332 332 331 331 331 331 331 330 330 331 331 330 329 327 328 328 326 326 327 329 330 330 330 330 330 330 330 329 328 328 328 329 329 329 329 329 328 328 327 327
326 327 329 330 331 332 331 331 331 331 331 331 331 331 330 329 330 331 331 330 331 331 331 332 332 331 331 331 331 331 330 331 331 330 330 330 328 327 327 326 324 325 328 330 329 329 330 331 330 330 329 329 329 328 328 329 329 328 328 328 327 327 327
325 325 327 328 329 330 331 331 331 331 332 331 331 331 329 328 329 330 330 331 331 330 330 331 332 332 332 331 330 331 330 330 330 330 330 330 328 327 326 326 324 324 328 330 328 328 330 330 330 329 329 329 329 329 329 329 329 329 328 327 327 327 327
323 324 325 326 327 328 330 330 331 332 331 331 331 330 329 328 328 329 330 330 330 330 330 331 332 332 331 331 330 331 331 330 330 330 329 329 328 328 328 327 325 326 329 330 328 327 328 329 330 330 329 329 329 329 329 329 329 329 328 327 327 327 327
321 322 324 325 326 327 328 329 331 331 331 331 331 330 329 329 329 330 330 329 329 330 330 331 332 331 331 331 331 331 331 331 330 329 328 328 329 328 329 328 326 327 331 330 328 327 327 329 330 330 329 329 329 328 329 330 330 329 328 327 327 327 327
319 319 321 324 326 327 327 328 329 330 331 331 331 330 330 330 329 329 330 330 331 331 330 330 331 331 331 330 330 330 331 331 330 328 327 327 328 328 329 329 326 328 331 330 327 327 327 328 330 330 329 330 329 329 329 330 329 329 327 327 327 327 327
317 317 318 320 323 325 326 326 327 328 330 331 331 331 330 330 329 329 329 330 330 330 329 330 331 331 331 330 330 330 330 331 330 328 326 327 327 327 328 328 326 328 331 330 327 327 326 327 329 329 329 329 329 329 329 328 327 327 326 326 327 327 326
317 316 316 316 319 321 324 326 326 327 328 329 330 330 330 330 330 330 329 328 329 329 329 331 331 331 331 330 330 330 330 330 330 329 328 329 328 327 327 328 327 328 330 329 327 326 326 327 328 328 329 329 329 329 329 328 327 327 326 326 328 327 326
316 315 316 316 316 316 319 322 325 326 327 327 328 329 329 330 329 330 330 329 329 329 329 330 330 330 330 330 330 330 329 329 329 329 330 330 328 328 328 328 328 329 329 328 327 326 326 327 328 329 330 329 329 329 329 329 328 327 326 326 327 327 326
315 314 314 315 316 315 316 317 320 323 326 327 327 327 328 329 329 330 330 329 329 329 329 329 329 329 329 329 330 330 329 328 328 328 328 327 326 327 329 329 328 329 328 328 328 326 326 327 328 329 330 329 329 329 329 329 327 327 326 326 326 325 326
314 313 313 314 314 315 315 316 317 318 321 324 326 326 327 328 329 329 329 330 330 330 330 330 330 330 329 328 328 328 328 328 327 327 327 326 326 328 329 328 328 328 328 329 328 326 327 328 328 329 329 328 329 328 328 328 328 327 327 326 325 324 324
313 312 312 312 313 314 315 315 316 316 317 320 322 324 325 327 328 329 329 330 329 329 330 330 329 329 329 328 327 326 327 327 327 326 326 326 328 329 329 329 329 329 328 328 328 327 327 328 329 329 328 327 328 327 327 328 328 328 327 326 326 323 322
312 312 312 311 311 312 314 314 315 316 317 317 319 321 323 325 327 328 328 329 329 329 329 329 329 328 328 328 327 326 325 325 324 324 324 326 328 329 329 329 330 329 328 328 329 328 328 328 328 328 327 327 327 327 327 327 327 327 327 326 326 324 321
311 311 311 311 310 311 312 314 315 316 316 317 318 320 322 324 326 327 328 328 329 329 329 329 329 328 328 328 327 325 325 325 324 323 323 325 327 328 328 328 328 329 328 328 329 328 327 328 328 327 326 326 326 326 327 327 327 327 326 326 326 325 321
311 310 310 310 310 310 311 312 314 315 316 317 317 319 321 324 325 326 327 327 328 328 328 328 328 328 328 328 327 326 326 327 326 326 326 327 327 327 328 328 328 329 329 328 328 327 327 327 327 326 325 325 325 326 327 326 327 328 327 326 327 326 323
310 310 310 309 309 309 309 310 312 314 315 316 317 318 320 323 325 325 326 327 328 328 328 328 328 327 327 327 327 326 327 327 326 326 326 327 327 327 327 327 326 328 329 328 327 327 326 325 326 325 324 323 324 327 328 327 327 328 327 326 326 326 325
309 309 309 309 309 309 308 308 309 311 313 314 316 318 320 322 323 324 325 326 327 327 328 328 328 327 327 327 326 326 326 325 325 324 325 328 328 326 326 325 325 327 328 327 326 325 325 325 325 325 324 323 324 327 328 327 328 328 326 325 326 327 326
308 308 308 308 308 308 308 307 307 308 309 311 312 314 316 319 321 322 323 324 324 325 326 327 327 327 327 327 326 327 326 325 325 325 325 328 328 327 326 326 327 328 327 325 325 324 324 324 324 325 325 323 324 327 328 328 328 328 326 325 326 327 326
307 307 307 307 308 307 307 307 306 306 307 307 309 310 312 314 316 318 320 321 321 322 324 325 326 327 328 327 327 327 327 325 325 326 326 327 328 327 326 327 328 328 326 325 325 325 324 323 324 325 326 325 325 327 327 328 328 328 327 326 325 325 325
307 307 307 307 307 307 307 306 306 306 306 306 306 307 308 309 311 313 314 316 317 319 321 323 324 325 327 327 327 327 327 326 326 326 327 327 327 327 326 325 325 326 325 325 324 323 323 324 325 326 327 328 327 327 327 327 327 327 327 326 325 324 324
306 306 306 306 306 306 306 306 306 306 306 305 305 305 305 306 307 308 309 311 313 315 317 320 323 324 325 326 326 327 327 327 327 327 326 326 327 328 327 325 324 323 324 325 324 323 324 325 325 325 327 328 328 328 328 327 327 327 326 326 325 325 325
305 305 305 305 305 305 305 305 305 305 305 305 305 305 304 304 305 306 307 308 309 310 312 315 318 321 323 324 325 326 326 326 327 327 327 326 326 326 327 327 325 324 325 326 326 325 325 325 326 326 327 328 328 328 328 327 326 326 326 325 325 325 325
305 305 305 304 304 304 304 304 304 304 304 304 305 305 304 304 304 304 305 305 306 307 308 310 313 317 320 322 324 325 325 326 326 326 327 327 325 324 324 325 325 324 325 326 326 325 325 326 327 327 328 328 328 328 327 326 326 325 325 325 325 325 325
304 304 304 304 304 304 304 303 303 303 303 303 303 304 304 304 304 303 303 304 304 306 307 308 309 312 315 318 321 323 324 325 326 326 326 326 325 323 322 322 322 322 324 326 325 325 326 326 326 327 328 327 327 327 326 325 325 325 325 325 325 325 325
303 303 303 303 303 303 303 303 303 303 303 303 303 303 303 303 303 303 303 302 303 304 305 306 307 309 311 314 317 320 322 323 325 325 325 326 326 325 323 323 323 323 324 324 323 324 326 326 326 326 326 326 326 326 325 325 325 324 324 324 324 325 325
302 303 303 303 302 302 302 302 302 302 302 302 302 302 302 302 302 302 302 302 302 302 303 304 305 307 308 310 313 316 318 320 322 324 324 325 325 325 324 323 324 325 325 324 323 325 326 326 326 326 325 325 325 324 324 324 325 325 325 325 324 324 324
302 302 302 302 302 302 301 302 301 301 302 302 302 301 301 301 301 300 301 301 302 302 302 302 303 305 306 308 310 313 315 316 319 321 322 322 322 322 322 322 322 324 325 325 324 325 325 325 325 325 325 325 324 323 323 325 325 325 324 323 322 321 320
301 301 301 301 301 301 301 301 301 301 301 301 301 301 301 301 300 300 300 300 301 301 302 302 302 303 304 305 307 309 311 313 315 318 318 319 319 320 321 321 322 323 325 325 325 325 325 325 325 324 324 324 324 323 323 323 323 322 320 319 318 316 315
300 300 300 300 300 300 300 300 300 300 300 300 301 301 301 301 300 300 299 299 299 300 301 302 302 302 302 303 304 306 308 309 312 314 314 315 316 318 319 320 321 322 323 324 325 326 324 323 324 323 323 323 323 322 322 321 319 318 316 315 314 313 313
300 300 300 299 299 300 299 299 298 299 300 300 300 300 300 300 300 300 299 299 299 299 300 301 301 302 302 302 303 304 305 306 308 310 311 311 312 314 317 319 319 320 321 321 323 324 323 322 322 322 322 321 319 318 318 317 316 315 315 314 313 312 311

ECMWFFLT1_850_thetae_072.txt.gz
Theta_e
337 337 337 337 336 336 336 336 335 335 335 334 334 333 333 333 333 333 333 333 332 331 331 331 330 329 328 329 329 329 329 329 329 328 327 327 327 327 328 329 329 329 329 328 328 329 331 330 330 330 330 330 329 329 329 329 328 328 328 328 328 328 327
337 336 336 337 337 337 336 335 336 336 335 335 334 334 333 333 333 333 333 333 332 332 331 331 331 329 329 329 331 331 330 330 329 328 328 327 326 326 327 329 329 329 329 329 327 328 330 331 331 330 329 330 329 329 329 329 328 328 328 328 328 327 327
336 336 336 336 337 336 336 336 336 336 335 335 335 335 334 333 333 333 332 332 332 332 332 331 331 330 330 330 331 332 332 331 330 329 329 329 327 326 326 327 328 328 329 329 328 328 329 330 331 330 330 330 330 329 329 329 329 329 328 328 327 327 327
334 333 334 334 335 335 335 336 336 335 335 335 334 335 335 333 333 332 331 330 331 332 332 331 331 331 331 331 332 332 332 332 331 330 329 329 329 328 327 326 326 326 328 329 328 328 328 328 329 330 330 331 330 329 329 329 329 329 329 328 327 327 327
331 331 332 332 332 333 333 333 334 334 335 335 334 334 334 333 333 332 331 330 331 331 332 331 331 331 330 330 331 332 332 332 331 331 330 330 330 329 328 327 325 325 327 328 328 328 327 328 330 330 330 331 330 330 329 329 328 329 330 329 328 327 327
329 330 330 331 331 331 331 331 332 332 332 333 334 334 334 333 332 332 332 331 331 331 331 331 331 331 330 330 329 330 332 332 332 331 330 330 330 330 329 327 327 326 327 327 328 327 327 328 330 331 330 330 329 330 330 330 329 329 330 329 328 327 327
326 327 328 329 329 330 330 331 331 331 331 331 332 333 333 332 332 332 332 332 331 331 331 330 330 331 331 330 330 330 331 331 331 331 331 330 330 329 329 329 328 328 328 327 328 328 327 328 329 330 330 329 329 329 330 330 329 329 330 330 329 328 327
324 325 325 326 327 328 329 330 332 332 331 331 332 332 332 332 332 332 332 331 331 330 330 330 329 330 330 330 330 331 331 331 331 331 331 331 330 329 330 330 329 329 329 327 327 328 328 328 329 329 329 329 329 329 329 330 330 330 330 330 329 328 327
321 322 323 324 325 326 328 329 330 331 331 332 332 332 333 332 332 331 331 330 330 329 329 328 327 329 330 330 330 331 331 331 331 331 330 330 329 329 330 330 330 330 329 327 327 327 327 328 329 329 329 329 329 329 329 330 331 330 330 330 330 328 328
320 320 321 322 323 324 325 327 329 330 331 332 332 332 333 332 332 331 330 330 330 329 329 328 327 328 329 330 330 330 331 330 330 330 330 330 330 330 331 331 331 329 328 327 326 326 326 327 328 329 329 329 329 329 329 330 330 330 329 330 330 329 328
319 319 319 320 321 322 324 326 327 328 329 330 331 332 332 332 332 332 331 331 331 330 330 329 328 328 329 329 329 329 330 330 330 330 331 330 331 331 332 331 331 330 328 327 327 326 326 327 327 328 329 329 329 329 329 329 330 330 329 330 330 329 328
318 318 318 318 318 319 321 324 325 326 327 328 329 331 332 332 332 332 332 332 331 331 330 329 328 328 328 328 329 329 330 330 331 331 331 330 330 331 331 332 331 330 329 328 328 325 324 326 327 327 329 329 329 329 329 329 329 329 329 330 330 328 328
317 317 316 316 316 316 318 319 321 322 323 325 327 329 329 330 331 331 331 331 331 330 330 330 329 328 328 329 329 329 330 330 330 330 330 330 330 331 331 331 331 330 328 327 326 324 323 325 327 328 329 329 329 328 328 328 329 329 328 329 328 328 327
316 316 316 315 315 316 316 316 316 317 319 321 323 325 326 328 329 330 330 330 330 330 330 329 329 329 328 329 329 330 330 330 330 330 330 330 330 330 330 331 331 330 327 325 325 325 324 324 326 329 329 329 330 329 328 328 328 328 328 328 327 327 327
315 315 315 314 314 314 314 315 315 315 316 317 319 321 322 324 325 327 328 329 330 330 329 329 328 328 328 328 329 330 330 330 330 330 330 330 329 329 330 330 330 329 328 327 327 327 325 323 325 328 328 328 330 329 328 329 329 328 328 329 327 327 327
314 314 314 313 313 313 313 314 314 314 315 315 316 317 318 320 322 324 326 328 329 329 329 329 329 329 328 327 328 329 329 330 330 330 330 330 330 330 330 329 328 328 329 329 329 328 326 325 326 327 327 327 328 328 328 329 328 328 328 328 327 327 327
313 313 313 313 312 312 312 313 313 314 315 315 316 316 316 317 319 322 324 326 327 328 329 329 329 328 327 326 327 329 329 329 330 330 330 330 330 330 330 329 327 327 327 328 329 328 327 327 327 327 327 327 327 328 328 328 328 327 328 327 326 326 327
312 312 312 312 311 311 311 312 312 313 314 315 315 315 316 316 317 319 322 324 326 327 328 328 328 328 328 328 328 329 329 328 329 330 330 330 330 330 330 329 327 326 326 327 328 328 328 328 327 326 327 328 327 328 328 327 327 327 327 328 327 326 327
311 311 311 310 310 310 310 310 311 313 313 313 314 314 315 315 316 318 321 323 324 326 327 328 328 328 328 328 328 328 328 328 329 329 328 328 329 329 329 330 328 328 328 328 329 329 329 329 327 326 327 327 327 328 328 328 327 327 327 328 327 326 327
310 310 310 310 310 310 309 309 310 311 312 312 313 313 314 316 316 318 321 322 322 324 326 327 327 328 327 327 328 328 328 328 328 328 328 328 328 327 328 329 328 328 329 329 329 329 328 329 329 328 327 327 327 328 329 328 328 327 327 328 327 326 326
309 309 309 309 309 309 308 308 308 308 309 310 311 311 312 314 316 318 320 321 321 323 325 326 326 327 327 327 327 328 328 328 328 329 328 328 328 327 326 327 327 328 329 328 327 327 328 328 329 329 328 327 328 328 328 328 328 327 327 328 327 327 325
309 308 309 309 308 308 308 307 307 306 307 308 308 309 309 311 313 315 317 319 319 321 323 324 325 325 325 326 327 327 327 327 328 328 328 328 328 327 327 327 326 327 327 327 325 326 327 328 328 329 328 327 328 329 328 328 327 326 326 327 327 327 325
308 308 308 307 307 307 307 307 307 306 306 306 306 306 307 308 309 310 312 314 316 318 320 321 322 323 324 326 327 327 327 327 327 327 327 328 328 327 327 327 328 327 327 327 327 327 327 327 328 328 328 328 328 329 330 330 327 326 327 327 327 327 326
307 307 307 306 306 306 306 306 306 306 306 306 305 305 305 306 307 307 308 309 311 313 315 316 318 321 323 324 326 327 327 326 327 327 327 328 327 326 326 327 329 329 328 328 328 327 327 327 327 327 327 327 328 328 329 329 328 327 327 327 326 326 326
307 306 306 306 305 305 305 305 305 305 306 306 305 305 304 305 305 305 306 306 308 309 310 312 314 318 321 323 324 326 326 326 326 326 327 326 326 325 324 324 326 328 329 329 328 327 327 327 327 327 326 326 326 326 326 327 327 327 327 326 326 326 326
306 306 305 305 305 305 304 304 304 304 304 305 305 305 305 305 304 304 304 305 306 307 308 309 311 313 316 319 322 324 325 326 327 326 326 326 326 325 324 325 325 327 328 329 328 328 327 327 327 327 326 326 326 326 326 326 326 326 326 326 325 325 325
305 305 305 304 304 304 304 304 304 303 303 303 303 304 304 304 304 303 303 303 304 305 306 307 308 309 312 315 319 322 323 324 326 326 326 326 326 326 325 324 325 325 326 327 328 329 328 328 327 325 326 328 327 327 327 327 326 327 327 327 326 325 325
304 304 304 304 304 303 303 303 303 303 303 303 302 303 303 303 303 303 302 302 303 303 304 306 307 308 309 311 314 318 321 323 324 325 326 326 326 326 326 325 324 324 324 325 327 328 329 328 327 326 326 328 327 327 327 326 326 326 326 326 327 326 325
304 304 304 303 303 303 303 302 302 302 303 302 302 302 302 302 302 302 301 301 302 302 303 305 306 306 307 309 311 314 318 321 322 324 325 325 326 326 327 327 327 325 324 324 325 326 327 328 328 327 327 327 327 327 327 327 326 325 325 326 327 325 324
303 303 303 303 302 302 302 302 302 302 302 302 302 302 302 301 301 301 301 301 301 301 302 303 305 306 306 307 309 311 314 317 319 321 323 324 325 326 326 328 327 326 325 323 322 323 325 326 327 327 327 326 326 327 327 327 326 326 326 327 328 326 324
302 302 302 302 301 300 301 302 301 301 302 302 302 301 301 301 300 300 300 300 300 301 301 302 303 304 305 305 306 308 311 314 316 318 320 322 323 324 325 326 327 327 325 322 321 323 325 326 326 326 327 327 327 327 327 327 326 327 327 327 327 327 326
301 301 301 301 300 299 298 300 301 301 301 301 301 301 301 301 300 299 299 299 300 300 301 301 301 302 304 304 305 306 308 311 313 315 317 319 321 322 324 325 326 327 325 321 320 322 323 324 325 326 326 327 326 325 326 326 325 325 325 326 327 326 325
301 300 300 300 300 298 297 298 299 300 300 301 301 300 300 300 300 300 299 299 299 300 300 300 300 301 302 303 303 304 306 307 310 311 313 315 317 320 322 324 325 325 324 321 319 319 319 322 325 326 326 326 326 325 325 325 325 325 325 326 327 326 325
300 300 300 299 300 299 298 297 298 299 300 300 300 300 300 300 300 300 300 299 299 299 299 299 300 300 301 301 302 303 304 305 306 308 310 312 313 315 318 320 323 324 323 321 320 319 318 319 321 323 325 326 326 325 325 325 325 325 325 326 325 325 325
300 299 299 299 299 299 299 297 297 298 298 299 299 299 299 299 299 299 299 299 299 299 299 299 299 300 300 300 301 302 302 303 304 305 307 309 310 311 313 315 318 321 322 322 322 322 320 319 319 322 323 325 326 325 324 324 324 323 323 323 324 324 323
300 299 299 299 299 299 299 298 297 297 297 297 297 297 298 299 299 298 298 299 299 299 299 299 299 300 300 300 300 300 301 301 302 303 304 305 306 307 309 310 313 316 319 320 321 323 323 322 323 324 324 323 324 324 323 323 321 320 319 319 320 319 317
300 300 299 299 299 299 298 297 297 297 297 297 297 296 296 297 298 298 297 298 299 299 299 299 299 299 299 299 300 300 300 300 300 301 301 302 303 304 305 307 308 310 313 315 316 319 323 323 322 323 323 323 323 322 321 319 317 316 316 315 314 314 313

ECMWFFLT1_850_thetae_075.txt.gz
Theta_e
337 337 337 337 337 336 336 336 335 335 335 333 332 333 334 333 333 332 332 333 332 332 333 332 332 332 331 331 331 331 330 330 330 330 330 329 328 327 327 327 327 328 329 329 329 329 329 329 329 329 329 330 330 330 330 329 329 329 328 328 328 328 328
336 336 336 336 337 336 336 336 336 336 335 334 334 334 333 332 333 333 333 333 332 332 333 332 333 332 332 332 332 332 331 330 330 330 330 330 330 329 328 327 327 328 330 330 329 329 329 329 329 329 329 329 330 330 330 329 329 329 328 328 328 328 328
334 335 335 335 335 335 335 335 335 335 334 334 334 334 333 333 333 334 334 333 332 332 332 332 332 332 332 332 332 332 332 331 330 330 331 331 331 330 329 327 327 328 329 330 330 329 330 329 328 329 329 329 329 329 329 329 329 329 328 328 328 328 328
330 331 332 332 333 333 333 333 333 333 332 332 332 333 333 333 333 333 333 333 332 332 332 332 332 332 331 331 331 332 332 332 331 330 330 331 331 331 330 329 328 328 328 328 328 329 330 329 328 328 328 329 329 329 329 329 329 329 328 328 328 328 328
326 327 328 328 329 329 330 330 330 330 331 331 331 332 332 332 333 333 333 333 332 332 332 331 331 331 331 331 331 331 331 332 332 331 330 331 332 332 331 330 329 328 327 326 326 327 329 329 328 328 327 328 329 329 329 329 329 329 329 328 328 328 328
323 324 325 326 326 326 328 328 329 329 330 331 331 331 332 332 332 332 332 332 332 332 332 331 331 331 330 330 330 330 330 331 332 332 331 331 331 332 332 331 330 329 328 326 325 326 327 327 328 328 328 328 328 329 330 329 329 329 329 329 328 328 328
320 321 322 323 323 324 326 327 327 329 330 331 331 331 332 332 332 332 332 332 332 331 330 329 329 329 329 329 328 328 328 329 330 331 331 330 329 331 331 331 331 330 329 328 327 326 326 326 327 328 328 328 328 329 330 330 330 329 328 329 329 328 328
319 319 319 320 320 321 323 324 325 327 329 329 329 330 331 332 332 332 332 332 332 331 330 328 329 329 329 328 328 327 328 328 329 329 330 330 330 331 331 330 331 330 330 329 329 328 326 325 326 327 327 327 328 329 329 330 330 329 328 329 329 329 328
318 318 317 317 317 317 318 321 322 325 327 327 328 329 330 331 331 331 332 332 332 331 330 329 329 329 329 328 328 328 329 328 328 329 329 330 330 330 331 330 331 330 330 330 329 329 329 326 326 327 327 326 328 329 329 329 329 329 329 328 329 329 329
317 316 316 315 315 315 316 317 319 321 324 325 326 327 327 329 329 330 331 331 331 331 331 330 330 330 329 328 328 327 328 328 328 328 327 328 328 330 330 330 330 331 330 330 330 329 330 329 327 328 328 327 328 329 329 329 329 328 328 328 329 329 329
316 315 315 314 314 314 314 315 316 317 319 320 322 323 324 326 327 328 330 330 330 330 330 330 329 329 329 329 328 328 327 328 327 326 324 324 325 328 330 329 329 330 330 330 329 329 330 330 329 329 328 327 328 329 329 329 328 328 328 329 329 330 329
314 314 314 314 314 313 313 314 315 315 315 316 317 318 319 322 324 326 328 329 329 330 329 329 329 329 329 329 329 328 328 328 327 326 325 324 324 327 329 329 329 330 329 329 329 329 330 330 330 330 328 325 325 328 329 328 329 328 328 329 329 329 329
313 313 313 313 312 312 312 313 313 314 314 315 315 316 316 317 319 321 323 325 327 328 328 328 329 329 329 329 328 328 328 328 328 327 326 325 325 326 328 329 329 330 330 331 330 329 330 330 330 329 327 324 325 328 330 329 329 329 328 329 330 329 329
313 312 312 312 311 311 311 312 312 313 313 314 314 315 315 316 316 316 318 321 323 325 326 327 328 328 328 328 328 328 328 327 327 327 326 325 324 325 327 328 328 329 329 331 331 330 331 330 329 329 328 326 326 328 329 329 329 329 328 329 329 329 329
312 312 311 311 310 310 310 311 312 312 312 312 312 313 314 315 315 315 316 318 321 323 324 326 327 327 327 327 328 328 328 326 325 326 326 327 327 327 328 328 328 329 329 329 330 331 331 331 329 329 328 326 324 325 328 329 329 329 329 328 328 328 328
311 310 310 310 310 309 309 310 311 311 311 311 311 312 313 314 314 315 316 318 319 321 322 324 325 326 326 327 327 327 327 326 325 326 327 328 328 328 328 328 328 328 329 329 330 331 332 331 330 329 327 324 323 324 327 329 328 329 329 328 328 328 328
309 309 309 309 309 308 308 308 309 310 310 310 311 311 312 313 314 315 316 318 318 319 320 321 322 324 325 326 327 327 326 326 326 327 327 327 328 328 328 328 328 329 330 330 330 330 330 331 330 328 325 324 323 324 327 329 328 328 329 328 328 328 327
309 309 308 308 308 307 307 306 307 308 308 309 309 309 309 311 313 314 315 316 318 318 318 319 320 322 323 324 325 326 326 326 326 326 326 327 327 328 328 328 328 329 330 330 330 330 330 330 329 327 325 325 326 325 327 329 329 328 329 328 328 327 327
307 307 307 307 306 306 306 306 306 306 306 307 307 307 307 308 309 311 312 313 315 316 316 317 318 320 321 322 323 324 325 326 326 325 326 327 327 327 327 327 327 327 329 330 330 329 329 330 329 327 327 328 327 326 326 328 328 328 328 328 328 328 327
306 306 305 305 305 305 305 305 305 305 305 305 306 306 306 307 307 307 309 310 311 312 313 314 316 318 319 321 322 323 324 325 326 326 326 327 327 327 328 328 327 327 327 328 330 329 328 328 328 327 328 329 329 328 328 328 328 328 328 328 327 327 327
305 305 304 304 304 304 304 305 305 305 305 305 304 304 305 305 306 306 307 307 308 309 309 311 312 314 316 318 320 321 322 324 326 327 326 326 326 326 327 328 327 326 326 326 327 328 328 327 328 328 327 328 330 330 329 328 327 327 328 327 327 327 326
305 304 304 303 303 303 303 304 304 304 304 304 304 304 303 303 304 305 306 306 307 307 308 308 308 309 310 312 315 318 321 322 324 325 326 326 326 327 327 327 326 326 327 326 325 326 327 327 328 328 328 327 328 329 329 328 327 327 328 328 327 326 326
304 303 303 303 302 302 302 302 303 303 303 303 303 303 303 302 302 303 304 305 306 306 306 306 306 307 307 309 311 314 317 320 322 323 325 326 326 326 327 327 327 327 326 326 325 325 326 326 326 327 327 327 328 329 328 328 327 328 328 328 327 326 326
303 303 303 302 302 302 301 301 302 302 302 302 302 302 302 301 301 301 302 303 304 304 305 305 306 306 307 308 309 311 313 316 319 321 323 324 324 326 327 327 327 327 326 325 325 326 326 325 324 325 327 327 327 327 328 328 327 328 328 328 327 327 327
303 303 302 302 302 302 301 301 301 302 301 301 301 300 300 300 300 300 300 301 302 302 303 304 305 306 307 307 308 309 311 313 316 318 321 322 322 324 326 326 327 327 326 325 324 325 326 325 325 325 327 327 325 325 327 328 328 327 327 327 327 327 328
303 302 301 300 301 302 301 301 301 301 301 301 300 300 299 299 300 300 300 300 300 301 301 303 304 305 306 306 307 308 310 312 314 316 319 320 321 322 324 325 326 326 326 326 326 325 326 326 326 326 327 327 327 326 327 328 327 327 327 327 328 328 328
302 301 298 296 299 301 301 301 301 301 301 301 300 299 299 299 299 299 299 300 300 300 300 301 302 304 305 305 306 307 309 311 313 315 317 318 319 320 322 323 324 325 326 326 326 325 326 327 328 327 326 326 326 328 329 328 328 327 328 328 328 328 328
300 299 297 295 297 299 300 300 300 300 301 300 300 299 299 299 299 299 299 299 300 300 300 300 301 302 303 304 305 306 308 309 311 313 315 316 317 318 320 322 323 324 326 326 325 325 326 327 327 327 326 324 324 325 328 329 328 328 328 328 328 327 327
299 298 298 297 296 296 298 300 300 300 300 300 299 299 299 299 299 299 299 299 299 300 300 300 300 300 302 303 304 305 306 307 308 310 312 314 315 316 317 320 322 324 325 326 326 326 326 326 326 326 326 325 323 321 323 326 328 328 327 327 326 326 325
299 298 298 298 297 295 296 298 299 299 299 300 299 298 299 299 299 299 299 299 299 299 299 299 299 299 300 301 303 304 304 305 307 308 309 310 312 314 314 316 319 322 324 325 325 326 325 325 325 325 325 326 325 322 320 322 326 327 326 325 325 326 325
299 299 298 298 297 296 295 295 296 296 296 297 298 297 298 299 299 299 299 298 299 299 299 299 299 299 299 300 301 302 303 304 305 305 306 308 309 310 312 313 315 318 321 323 325 326 325 324 323 323 323 325 326 326 324 323 324 325 325 324 325 326 326
299 299 298 298 297 297 296 296 295 295 295 295 296 296 296 297 297 298 298 299 299 299 299 298 298 298 299 299 299 300 301 302 302 303 304 306 307 308 309 311 313 314 316 320 323 325 325 323 323 322 322 322 324 326 325 324 324 325 325 325 325 326 326
299 299 298 298 297 297 297 296 296 296 296 296 296 295 295 295 295 295 296 298 298 298 298 298 298 298 298 298 299 299 299 300 300 301 302 303 305 306 307 308 310 311 313 315 318 322 323 323 323 323 322 321 322 324 325 325 325 325 325 326 326 326 327
299 299 298 298 297 297 297 297 296 296 296 296 296 296 295 295 295 294 294 296 298 298 298 298 298 298 297 297 298 298 298 299 299 300 300 301 302 303 304 305 306 307 309 311 313 317 320 322 323 323 323 322 322 324 325 325 325 325 325 326 326 326 327
299 299 298 298 298 297 297 297 296 296 296 296 296 296 296 295 295 295 294 294 296 298 298 298 298 298 298 297 297 297 297 298 298 299 300 300 300 301 301 302 303 304 306 307 310 312 315 319 321 322 322 323 323 323 323 324 324 325 325 325 325 326 326
299 299 298 298 298 297 297 297 297 296 296 296 296 296 296 295 295 295 294 293 294 296 298 298 298 298 298 298 297 297 296 297 298 298 299 299 299 300 300 301 302 303 304 306 308 309 311 315 319 321 322 323 323 322 322 323 323 323 323 323 323 323 322
299 299 299 298 298 297 297 297 297 296 296 296 296 296 296 296 295 295 294 293 293 295 297 297 297 298 298 298 297 297 296 296 297 297 298 299 299 299 300 300 301 302 304 305 306 308 310 313 316 319 320 321 322 321 322 322 321 321 321 321 321 320 318

ECMWFFLT1_850_thetae_078.txt.gz
Theta_e
335 335 335 335 334 334 334 334 334 334 334 333 332 331 331 332 331 332 332 333 334 334 333 332 331 331 330 330 330 331 332 331 331 331 331 330 330 330 329 330 329 328 327 328 329 329 328 328 328 328 329 329 330 330 329 330 329 329 329 328 329 329 327
334 334 334 334 334 334 334 333 333 333 333 333 331 331 332 331 331 332 332 332 333 333 332 332 331 330 330 331 331 331 331 331 331 331 331 331 330 330 329 329 330 329 328 327 328 329 329 329 328 327 328 329 330 330 330 330 330 329 329 329 329 329 328
332 333 333 333 334 334 333 333 332 332 332 332 331 331 332 332 331 332 332 332 333 332 332 332 332 331 331 331 331 331 331 330 331 331 330 330 330 330 330 330 330 330 329 327 328 329 329 329 329 328 328 328 329 329 329 329 329 329 330 330 329 329 328
330 330 332 332 333 333 333 333 332 331 331 331 331 331 331 331 331 331 332 332 332 332 332 332 332 331 331 331 330 330 330 331 330 330 330 330 330 330 330 330 330 329 329 329 329 329 329 329 329 329 329 328 328 328 328 328 329 329 329 330 329 328 328
325 325 326 327 328 329 329 330 330 330 330 330 330 330 330 330 330 331 331 331 332 332 332 331 331 331 330 330 329 330 330 329 329 329 329 329 330 330 330 330 329 329 329 329 330 329 328 328 328 329 329 329 328 327 327 328 329 329 329 330 329 328 328
321 321 321 322 322 323 323 324 325 326 327 328 329 330 330 330 330 330 331 331 331 331 331 331 331 331 330 329 329 330 330 328 328 328 328 329 329 329 330 329 329 329 329 329 330 330 329 329 328 329 329 329 329 328 327 327 328 329 329 329 329 328 328
319 319 319 319 319 319 320 321 323 324 325 326 327 328 329 329 330 330 330 330 331 331 331 331 330 330 330 329 329 329 329 328 328 327 327 328 329 329 329 329 329 329 329 328 328 330 330 330 329 329 329 328 329 329 328 327 328 328 329 329 329 328 328
317 317 317 317 316 317 317 319 321 322 323 324 325 326 326 328 329 329 329 330 330 330 330 330 330 329 329 329 329 329 329 328 328 327 327 327 328 328 329 329 329 328 328 327 327 328 329 331 330 329 329 328 328 330 329 328 328 328 328 328 328 328 328
316 315 315 315 315 315 315 316 317 319 320 321 322 323 324 325 326 327 328 329 329 330 330 330 329 328 328 329 329 329 329 328 328 328 327 327 327 327 328 328 328 327 327 328 328 327 327 329 330 330 329 328 328 328 329 329 329 328 327 328 329 329 328
314 314 314 314 314 314 314 315 315 315 316 317 319 320 321 321 323 324 326 327 328 329 329 329 329 328 327 328 328 328 328 328 328 328 328 327 327 327 327 327 327 327 327 328 329 328 327 328 329 330 330 329 328 327 328 328 328 326 326 327 328 329 329
313 313 313 313 313 313 314 314 315 315 315 315 315 316 316 317 318 320 322 324 326 327 327 328 328 328 328 327 327 327 327 328 328 328 328 328 328 328 328 327 326 326 327 328 329 329 329 329 329 330 330 329 329 328 328 328 327 326 324 326 327 329 329
312 312 312 312 312 312 313 314 314 314 314 314 314 315 315 315 316 316 318 320 322 324 325 326 327 327 327 327 327 326 326 326 327 327 327 327 328 328 327 327 326 325 325 327 328 329 329 329 329 329 330 330 329 329 329 328 327 327 325 325 327 328 329
311 311 311 311 311 311 312 312 312 312 313 313 313 314 314 315 315 315 315 315 317 318 320 322 324 324 325 326 326 326 326 325 326 326 327 327 327 326 327 327 327 325 325 327 328 328 329 329 329 329 329 329 329 329 329 329 328 327 326 326 327 328 328
309 309 309 309 309 309 310 310 310 311 311 312 312 312 312 313 313 314 314 314 314 315 316 317 319 321 322 323 324 325 325 325 325 326 327 327 326 326 326 327 327 326 326 327 327 328 328 329 329 329 329 329 329 329 329 330 329 328 327 327 327 328 328
308 308 307 307 307 307 308 308 308 309 310 310 311 311 311 311 312 312 313 313 314 314 314 315 316 317 319 320 321 322 323 324 325 326 326 326 325 325 326 327 327 327 327 327 327 327 327 328 329 329 330 330 329 329 329 329 330 329 328 326 327 328 328
307 307 306 306 306 306 306 307 307 308 308 308 309 309 310 310 311 311 312 313 313 313 313 314 315 315 316 317 318 319 320 322 323 324 324 325 325 325 326 326 326 327 327 327 327 327 327 327 328 329 329 329 329 329 328 329 330 329 327 325 326 328 328
305 306 306 305 305 305 305 306 306 306 307 307 308 308 308 309 309 310 311 311 311 311 311 311 312 313 314 314 315 316 317 319 320 321 322 323 324 325 325 325 326 327 327 327 327 327 327 327 327 328 329 329 329 329 329 329 330 328 326 326 327 328 328
303 304 304 305 305 304 304 305 305 305 305 305 306 307 307 308 308 308 309 309 308 308 309 309 310 310 311 312 313 314 315 316 318 319 320 321 323 324 325 326 326 326 327 327 327 327 327 326 326 328 329 330 330 330 329 329 329 328 327 326 326 327 328
302 302 302 303 304 304 304 304 304 304 303 303 304 305 305 306 307 307 307 307 307 307 307 307 308 308 309 310 311 312 313 314 316 318 319 321 322 323 325 326 326 326 326 327 328 327 327 326 327 329 330 330 330 330 330 330 329 328 327 324 323 326 328
302 301 301 301 302 303 303 303 303 303 303 303 303 303 303 304 305 305 306 306 306 306 306 307 307 307 308 308 309 310 311 312 313 315 317 319 321 322 323 324 325 325 326 326 327 327 326 326 327 328 329 330 329 330 330 330 329 327 325 323 322 325 328
302 301 301 301 301 301 301 301 301 301 301 302 302 302 302 302 303 303 304 304 304 305 305 306 306 306 307 307 308 308 309 310 311 313 315 317 319 320 321 322 323 324 324 326 327 327 327 326 326 327 328 329 329 329 329 329 328 326 324 323 323 325 328
301 301 301 301 301 301 301 300 300 299 299 300 301 301 301 301 301 302 302 303 303 304 304 304 304 304 305 306 307 308 309 309 310 312 313 315 316 318 319 320 322 323 324 325 326 327 327 326 326 326 326 327 328 328 328 329 328 327 326 326 326 326 328
299 299 300 300 301 301 301 300 300 298 298 299 299 300 300 300 300 301 301 302 302 302 303 303 303 303 304 305 306 307 308 309 310 311 312 313 314 316 317 319 320 322 323 324 326 327 327 327 326 326 326 327 327 327 327 328 328 328 328 328 327 327 328
297 298 300 300 300 300 300 300 300 298 298 298 298 298 299 299 300 300 300 300 301 301 301 301 301 302 303 304 305 306 307 307 308 309 310 311 312 314 316 317 319 321 322 324 325 325 326 326 326 325 326 326 326 326 326 327 327 328 328 328 327 327 327
295 297 298 299 299 299 300 300 299 298 297 298 298 297 297 298 298 299 299 299 300 300 300 300 300 301 302 303 304 305 305 306 307 307 308 309 311 312 314 316 318 319 321 322 323 324 325 326 326 325 325 326 326 326 326 326 326 327 327 328 327 327 326
295 295 296 297 297 297 298 298 297 296 297 298 298 297 297 297 297 298 298 299 299 299 299 299 299 300 300 301 302 303 304 305 305 305 306 307 309 310 311 313 316 318 319 320 322 323 324 325 325 325 325 325 326 326 326 326 326 326 326 326 327 327 327
295 295 295 295 295 295 295 295 295 295 297 298 298 297 297 296 297 297 297 298 298 299 299 299 298 299 299 300 301 302 303 303 303 304 304 305 306 307 309 310 312 315 317 319 320 321 323 324 325 325 324 325 326 326 326 326 326 327 326 325 325 327 327
296 295 295 295 294 294 294 294 294 294 295 295 295 295 296 296 296 297 297 297 298 298 298 298 298 298 298 299 299 300 301 302 302 302 303 303 304 305 306 307 309 310 313 315 316 318 320 323 325 325 324 324 325 326 326 325 324 325 326 326 325 326 326
296 296 295 295 295 295 295 295 295 295 294 294 294 294 294 295 296 296 297 297 297 298 298 298 298 298 298 298 298 299 299 300 301 302 302 302 302 303 304 305 306 308 309 311 313 315 318 320 323 325 325 325 325 325 325 324 323 323 325 327 326 326 327
297 296 296 295 295 295 295 295 295 295 295 294 294 294 293 293 294 295 296 297 297 297 297 298 298 298 298 298 298 298 298 298 299 300 300 301 301 301 302 303 304 306 308 309 311 313 315 318 321 323 324 325 325 325 324 324 324 324 325 324 324 325 326
297 296 296 296 295 295 295 295 295 295 295 295 294 294 293 293 293 293 295 297 297 297 297 298 298 297 297 297 297 297 297 297 298 298 299 299 299 300 300 301 302 303 305 307 308 310 312 315 318 320 322 324 325 324 322 322 323 324 323 321 319 321 325
297 297 296 296 296 296 295 295 295 295 295 295 294 293 293 293 293 293 293 295 296 296 297 297 297 297 297 297 297 297 297 296 297 297 297 298 298 299 299 300 301 302 303 304 306 308 309 311 315 317 320 322 324 323 321 320 321 322 324 322 318 319 322
298 297 297 296 296 296 296 295 295 294 294 294 294 293 293 293 293 293 293 293 295 296 296 296 296 297 297 296 296 296 296 296 296 297 297 297 298 298 299 300 300 301 302 303 305 306 308 309 312 314 317 320 322 323 322 321 320 321 324 323 321 320 322
298 297 297 297 297 296 296 295 295 294 294 294 293 293 293 293 293 293 293 293 293 295 296 296 296 296 296 296 296 295 295 295 295 296 296 297 298 298 299 299 300 300 301 302 303 305 306 308 310 312 315 318 321 323 323 321 321 322 324 324 323 323 324
298 298 297 297 297 297 296 295 295 295 294 294 293 293 293 293 293 293 293 293 293 293 294 295 295 295 296 296 295 295 295 295 295 295 296 296 297 298 298 299 299 300 300 301 303 304 305 307 309 311 313 316 320 322 322 322 321 322 323 324 324 324 323
298 298 298 297 297 297 296 296 296 295 294 293 293 293 293 293 293 293 293 294 293 293 294 294 295 296 296 296 295 295 294 294 295 295 295 296 296 297 297 298 299 299 300 301 302 303 304 305 307 309 312 315 318 321 322 322 321 321 322 323 324 324 323
298 298 298 298 297 297 296 296 296 295 294 293 293 294 294 293 293 293 293 293 294 294 294 294 295 296 296 296 295 294 294 294 294 295 295 295 296 296 297 297 298 299 300 300 301 302 303 304 305 307 309 312 316 319 321 321 321 321 321 321 322 322 322

ECMWFFLT1_850_thetae_084.txt.gz
Theta_e
331 330 330 331 331 331 331 331 332 332 332 332 331 331 331 331 331 331 331 330 330 330 330 330 329 329 329 330 330 331 331 331 331 330 330 329 328 327 327 326 326 326 326 327 328 328 328 328 328 328 328 328 328 328 327 327 327 327 326 326 327 328 328
330 330 330 330 330 331 331 331 331 331 331 330 330 330 330 330 329 329 329 329 329 329 329 329 328 328 328 329 329 330 330 330 330 330 329 329 327 326 325 325 325 325 325 325 326 327 328 328 328 327 327 328 328 328 328 328 327 327 327 326 326 327 328
329 329 329 329 329 330 330 330 330 330 330 330 329 329 328 328 328 327 327 328 328 328 327 327 327 326 326 327 328 328 328 328 328 328 328 328 326 325 325 325 325 325 325 325 325 327 328 328 328 327 327 328 328 328 328 328 328 327 327 327 327 326 327
329 328 328 328 329 329 329 329 329 329 329 329 328 327 327 326 326 326 326 326 326 326 326 325 325 325 325 326 327 327 326 326 326 326 326 326 325 324 325 325 325 325 326 325 324 326 327 328 328 328 328 328 328 328 327 327 327 328 328 328 328 327 326
326 326 326 326 326 326 326 326 325 325 324 324 324 324 324 324 324 324 325 325 325 325 325 324 323 324 325 325 326 327 327 327 327 326 325 324 324 324 325 324 324 324 324 324 324 324 324 326 327 328 328 328 328 328 327 328 328 327 328 328 328 328 327
322 322 322 322 322 322 322 322 321 321 320 320 320 319 319 320 321 322 323 323 324 324 323 323 323 323 324 324 325 326 327 327 328 327 326 326 324 324 324 323 323 324 323 323 323 323 323 324 325 327 327 327 328 328 328 328 328 328 328 328 328 328 328
318 318 318 318 318 318 318 318 318 317 317 317 317 316 316 316 317 317 318 319 320 321 322 322 322 323 323 323 323 323 325 326 326 326 326 326 325 325 324 323 322 323 324 324 323 323 324 324 324 325 325 326 326 326 327 327 327 328 327 326 327 328 328
315 315 315 315 315 315 315 315 315 315 315 315 315 315 315 315 315 315 315 316 316 317 319 319 320 320 320 320 319 319 321 322 323 323 324 324 324 324 324 323 322 323 323 324 323 323 324 324 325 324 324 325 325 325 325 325 326 327 326 326 327 327 328
314 313 313 314 314 314 314 314 314 314 314 314 314 314 314 314 314 314 314 315 315 315 315 316 316 316 316 316 315 315 316 317 318 319 320 322 322 323 322 322 322 322 322 323 323 323 324 324 324 324 324 325 326 326 326 326 327 327 326 326 326 327 328
313 313 313 313 313 313 314 314 313 313 313 313 313 313 313 313 313 313 313 313 314 314 314 314 313 313 313 313 313 313 313 313 313 314 315 316 317 319 320 320 321 321 320 321 322 322 323 324 324 323 323 324 324 326 326 327 327 327 327 326 325 325 326
311 311 312 312 313 313 313 313 312 312 312 312 312 312 312 312 312 312 312 312 312 312 312 312 312 312 312 311 311 312 312 312 312 311 312 312 313 314 315 316 317 317 318 319 319 320 321 323 324 324 323 323 323 324 325 326 327 327 327 328 327 326 326
310 310 311 311 312 312 312 312 312 311 311 311 311 311 311 311 311 311 311 311 311 311 311 311 311 311 311 311 311 311 311 311 311 311 311 311 312 312 312 313 313 314 315 316 318 319 320 321 323 324 324 324 324 324 324 325 326 327 327 327 328 328 327
308 309 309 310 311 311 311 310 310 310 310 310 310 310 310 310 310 310 310 310 310 310 310 310 310 310 309 309 309 309 310 310 310 310 310 310 311 311 312 312 313 313 314 314 316 317 318 319 320 322 323 324 325 325 325 324 325 326 325 326 327 328 328
307 307 307 308 308 308 307 307 307 307 307 308 308 308 308 308 308 308 308 308 308 308 308 308 308 308 308 308 308 308 308 308 308 309 309 310 310 310 310 311 312 313 313 314 315 315 316 317 319 320 322 324 325 325 325 324 325 325 325 326 326 326 327
305 306 306 306 306 306 305 305 305 305 305 305 305 305 306 306 306 306 306 305 305 305 305 305 305 305 305 305 305 305 306 306 306 307 307 308 309 310 310 310 311 312 312 313 314 315 316 317 319 320 321 322 324 325 325 325 324 325 325 326 326 326 326
304 304 304 304 304 304 303 303 303 302 302 302 302 302 303 303 303 303 303 303 303 303 303 302 302 302 302 303 303 303 304 304 305 305 306 307 307 308 309 310 310 310 310 311 312 314 315 317 319 320 321 321 322 324 325 325 325 325 326 326 326 326 326
302 302 302 302 302 301 301 301 301 300 300 300 300 300 301 301 301 301 300 300 300 300 300 300 300 300 300 300 301 301 302 302 303 304 304 305 306 307 307 308 307 307 307 308 310 312 313 315 317 319 320 321 322 323 324 325 325 326 326 326 326 326 325
300 300 300 299 299 299 299 299 298 298 298 298 298 298 298 298 298 298 298 297 297 297 297 297 297 298 298 299 299 300 300 301 301 302 303 303 304 305 305 306 306 306 306 307 308 309 311 312 314 316 318 319 321 322 323 323 324 325 325 325 325 326 326
299 299 298 298 298 298 297 297 296 296 296 296 296 296 296 296 296 296 295 295 295 295 295 295 295 295 296 296 297 298 299 299 300 300 301 302 303 304 304 305 305 305 306 306 307 308 309 310 311 313 315 316 318 320 321 322 322 323 323 324 324 325 325
297 297 296 296 296 296 296 295 295 295 295 295 295 295 295 295 295 295 294 294 294 294 294 294 294 294 294 295 296 297 297 298 298 299 300 300 301 302 303 304 304 305 305 306 306 306 307 308 309 310 311 313 315 317 319 320 321 322 323 323 324 324 324
296 295 295 295 295 295 295 295 295 295 295 295 295 295 295 295 295 294 294 294 294 294 294 294 294 294 294 294 295 296 297 297 297 298 298 299 300 301 302 302 303 303 304 304 304 304 305 306 307 308 309 311 312 314 316 317 319 321 322 323 323 323 324
295 294 295 294 294 294 295 295 295 295 295 295 295 295 295 295 295 295 294 294 294 294 294 294 294 294 294 294 295 295 296 296 297 297 297 298 298 299 300 301 302 302 302 303 303 303 304 304 305 306 307 308 309 311 313 315 317 319 320 321 322 323 323
294 294 294 294 294 294 294 295 295 295 295 295 295 294 294 294 294 294 294 294 294 294 294 294 294 294 294 294 295 295 296 296 296 296 296 297 297 298 299 300 300 301 301 302 302 302 303 304 305 305 306 306 307 308 310 313 315 316 318 319 321 322 323
294 294 294 294 294 294 294 294 294 294 294 294 294 294 294 294 294 294 294 294 294 294 293 294 294 294 294 294 294 295 295 296 296 295 296 296 297 297 298 298 299 300 300 300 301 301 302 303 304 305 305 306 306 307 307 309 312 315 316 317 319 321 322
294 294 294 294 294 294 294 294 294 294 294 294 294 294 294 294 294 294 294 294 293 293 293 293 293 294 294 294 294 295 295 295 295 295 295 296 296 297 297 298 298 299 299 299 299 299 300 301 302 303 305 306 307 307 307 307 309 312 314 315 317 319 321
294 294 294 294 294 294 294 294 294 294 294 294 294 294 294 294 294 294 294 293 293 293 293 293 293 293 294 294 294 294 295 295 295 295 295 295 296 296 297 297 297 298 298 298 298 297 298 299 300 302 303 305 306 307 308 308 308 309 311 313 315 317 319
294 294 294 294 294 293 293 293 293 293 293 293 293 294 294 294 294 293 293 293 293 293 293 293 293 293 293 293 294 294 295 295 294 294 295 295 296 296 296 296 297 297 297 297 297 297 297 298 299 300 302 304 305 307 308 309 309 309 310 311 313 316 319
293 293 293 293 293 293 293 293 293 293 293 293 293 293 293 293 293 293 293 293 293 293 293 293 293 293 293 293 294 294 295 295 294 294 295 295 296 296 296 296 296 296 297 296 296 297 297 298 299 299 300 302 304 306 307 308 309 310 310 311 313 316 319
293 293 293 293 293 293 293 293 293 293 293 293 293 293 293 293 293 293 293 293 293 293 293 293 293 293 293 293 293 294 294 294 294 294 295 295 295 296 296 296 296 296 296 296 296 297 297 298 299 299 300 300 302 304 306 307 308 309 310 311 313 315 318
293 293 293 293 293 293 293 293 293 293 293 293 293 293 293 293 293 293 293 293 293 293 293 293 293 293 292 293 293 293 293 294 294 295 295 295 295 296 296 295 295 296 296 296 296 297 297 298 299 299 300 300 301 303 305 307 308 310 311 311 313 315 318
293 293 293 293 293 293 293 293 293 293 293 293 293 293 292 292 292 293 293 293 293 293 293 293 292 292 292 293 293 293 293 294 294 294 295 295 295 295 295 295 295 295 295 295 296 297 297 298 298 299 299 300 300 301 303 305 307 310 312 313 314 315 317
294 293 293 293 293 293 293 293 293 293 293 293 293 292 292 292 292 292 292 292 292 292 292 292 292 292 292 292 292 293 293 293 294 294 294 295 295 295 295 295 295 295 295 295 296 297 297 298 298 298 299 299 300 301 302 303 305 307 310 313 314 316 318
295 294 293 293 293 293 293 293 293 293 293 293 293 292 292 292 292 292 292 292 292 292 292 291 291 291 291 292 292 292 292 293 293 293 294 294 294 295 295 295 295 294 295 295 296 297 297 297 298 298 298 299 299 300 301 303 304 305 307 309 312 315 317
295 295 294 294 293 293 293 293 293 293 293 293 293 292 292 292 292 292 292 292 292 291 291 291 291 291 291 291 292 292 292 292 292 292 293 293 293 294 294 294 294 294 294 295 296 296 297 297 297 298 298 298 298 299 301 302 303 303 305 307 310 312 315
296 295 295 294 293 293 293 293 293 293 293 293 292 292 292 292 292 292 292 292 291 291 291 291 291 291 291 291 292 292 292 292 292 292 292 292 293 293 293 293 293 294 294 295 295 296 296 297 297 298 298 298 299 300 300 301 302 302 304 305 307 309 312
296 295 295 295 294 293 293 293 293 293 293 292 292 292 292 292 292 291 291 291 291 291 291 291 291 291 291 291 292 292 292 292 292 292 292 292 292 292 293 293 293 293 294 294 295 295 296 296 296 297 297 298 299 299 299 300 301 302 302 303 304 306 308
296 296 295 295 294 294 293 293 293 293 293 292 292 292 292 292 292 292 291 291 291 291 292 291 291 291 291 291 291 291 292 292 292 292 292 291 291 292 292 292 292 293 293 294 294 295 295 295 296 296 297 298 298 298 299 299 299 300 301 301 302 302 304